Location: Buckland
(65.9785°N, 161.1281°W)
Time: 07:19:23
(UTC+00:00)

Transit 2A Rocket - Pass Details

Date: 03 December 2020
Orbit: 592 x 910 km, 66.7° (Epoch: 21 January)

Event Time Altitude Azimuth Distance (km) Brightness Sun altitude
Exits shadow 15:53:28 70° 288° (WNW) 816 4.8 -24.4°
Maximum altitude 15:54:05 83° 358° (N) 770 4.9 -24.3°
Drops below altitude 10° 15:59:05 10° 87° (E) 2,182 8.4 -23.8°
Sets 16:01:19 0° 88° (E) 3,053 9.6 -23.6°
